Home   Weather   Hong Kong   Past weeks

Flag for Hong Kong Past Weather in Hong Kong, Hong Kong — Yesterday and Last 2 Weeks

Now
66 °F

Sunny.


Feels Like: 66 °F
Forecast: 58 / 67 °F
Wind: 6 mph from East

Location: National Airport

Current Time: Jan 25, 2017 at 9:34:31 am

Latest Report: Jan 25, 2017 at 9:00 am


Visibility: 10 mi

Pressure: 30.33 "Hg

Humidity: 64%

Dew Point: 54 °F

Location of Hong KongLocation

Past Weather in Hong Kong — Graph

°F

Hong Kong Temperature Yesterday

Maximum temperature yesterday: 70 °F (at 11:30 am)
Minimum temperature yesterday: 61 °F (at 6:00 am)
Average temperature yesterday: 65 °F

High & Low Weather Summary for the Past Weeks

 TemperatureHumidityPressure
High75 °F (Jan 10, 11:30 am)94% (Jan 13, 11:00 pm)30.39 "Hg (Jan 13, 11:00 pm)
Low55 °F (Jan 14, 5:00 am)33% (Jan 22, 7:30 am)29.92 "Hg (Jan 12, 2:30 pm)
Average64 °F70%30.15 "Hg
* Reported Jan 10 8:00 am — Jan 25 8:00 am, Hong Kong, Weather by CustomWeather, © 2017

Note: Actual official high and low records may vary slightly from our data, if they occured in-between our weather recording intervals... More about our weather records

Advertising

Hong Kong Weather History for the Previous 24 Hours

Scroll right to see more
 ConditionsComfort  
Time TempWeatherWind HumidityBarometerVisibility
8:00 am
Wed, Jan 25
63 °FPassing clouds.7 mph73%30.30 "HgN/A
7:30 am63 °FSunny.8 mph73%30.30 "Hg10 mi
7:00 am63 °FPassing clouds.7 mph73%30.30 "HgN/A
6:30 am63 °FPassing clouds.8 mph73%30.27 "HgN/A
6:00 am63 °FPassing clouds.10 mph73%30.27 "HgN/A
5:30 am63 °FPassing clouds.8 mph73%30.27 "HgN/A
5:00 am63 °FPassing clouds.10 mph73%30.27 "HgN/A
4:30 am63 °FPassing clouds.10 mph73%30.27 "HgN/A
4:00 am63 °FPassing clouds.8 mph73%30.30 "HgN/A
3:30 am63 °FPassing clouds.8 mph73%30.30 "HgN/A
3:00 am63 °FPassing clouds.8 mph73%30.30 "HgN/A
2:30 am64 °FPassing clouds.12 mph68%30.30 "HgN/A
2:00 am64 °FPassing clouds.8 mph68%30.30 "HgN/A
1:30 am64 °FPassing clouds.12 mph68%30.30 "HgN/A
1:00 am64 °FPassing clouds.13 mph68%30.30 "HgN/A
12:30 am64 °FPassing clouds.16 mph68%30.30 "HgN/A
12:00 am64 °FClear.17 mph68%30.30 "Hg10 mi
11:30 pm
Tue, Jan 24
64 °FPassing clouds.20 mph68%30.30 "HgN/A
11:00 pm64 °FPassing clouds.14 mph68%30.30 "HgN/A
10:30 pm64 °FPassing clouds.15 mph68%30.30 "HgN/A
10:00 pm64 °FPassing clouds.15 mph73%30.27 "HgN/A
9:30 pm64 °FPassing clouds.16 mph68%30.27 "HgN/A
9:00 pm64 °FPassing clouds.15 mph68%30.27 "HgN/A
8:30 pm64 °FPassing clouds.16 mph68%30.27 "HgN/A
8:00 pm64 °FPassing clouds.18 mph68%30.24 "HgN/A
7:30 pm64 °FPassing clouds.18 mph68%30.24 "HgN/A
7:00 pm66 °FPassing clouds.15 mph60%30.24 "HgN/A
6:30 pm66 °FPassing clouds.13 mph56%30.24 "HgN/A
6:00 pm66 °FPassing clouds.12 mph56%30.24 "Hg6 mi
5:30 pm68 °FPassing clouds.3 mph53%30.21 "Hg5 mi
5:00 pm68 °FPassing clouds.5 mph56%30.21 "Hg5 mi
4:30 pm66 °FPassing clouds.6 mph60%30.21 "Hg5 mi
4:00 pm68 °FPassing clouds.8 mph56%30.21 "Hg5 mi
3:30 pm68 °FPassing clouds.10 mph56%30.21 "Hg5 mi
3:00 pm70 °FPassing clouds.8 mph53%30.21 "Hg5 mi
2:30 pm70 °FPassing clouds.8 mph46%30.21 "HgN/A
2:00 pm70 °FPassing clouds.8 mph46%30.21 "HgN/A
1:30 pm70 °FPassing clouds.7 mph53%30.24 "Hg6 mi
1:00 pm68 °FSunny.7 mph56%30.24 "Hg10 mi
12:30 pm68 °FClear.5 mph56%30.27 "Hg6 mi
12:00 pm66 °FSunny.7 mph60%30.27 "Hg10 mi
11:30 am70 °FPassing clouds.5 mph50%30.30 "HgN/A
11:00 am66 °FSunny.7 mph60%30.30 "Hg10 mi
10:30 am66 °FPassing clouds.8 mph60%30.30 "Hg6 mi
10:00 am64 °FPassing clouds.12 mph64%30.30 "Hg6 mi
9:30 am64 °FPassing clouds.14 mph64%30.30 "Hg6 mi
9:00 am64 °FPassing clouds.12 mph64%30.30 "HgN/A
Weather by CustomWeather, © 2017

See weather overviewHow to use our weather pages